Regional Weather Roundup
Issued by NWS

Home | Current Version | Previous Version | Text Only | Print | Product List | Glossary On
Versions: 1 2 3 4 5 6 7 8 9 10 11 12 13 14 15 16 17 18 19 20 21 22 23 24 25 26 27 28 29 30 31 32 33 34 35 36 37 38 39 40 41 42 43 44 45 46 47 48 49 50
000
ASUS43 KLMK 240610
RWRKY
KENTUCKY REGIONAL WEATHER ROUNDUP
NATIONAL WEATHER SERVICE LOUISVILLE KY
200 AM EDT SUN MAY 24 2015

NOTE "FAIR" INDICATES FEW OR NO CLOUDS BELOW 12,000 FEET
WITH NO SIGNIFICANT WEATHER AND/OR OBSTRUCTIONS TO VISIBILITY.

KYZ001>023-026-027-061>063-070>075-240700-
WESTERN AND SOUTH CENTRAL KENTUCKY

CITY           SKY/WX    TMP DP  RH WIND       PRES   REMARKS
PADUCAH        CLEAR     64  55  72 SE7       30.14F
HENDERSON      PTCLDY    64  52  63 SE5       30.17F
OWENSBORO      PTCLDY    65  52  62 SE3       30.20F
HOPKINSVILLE   PTCLDY    66  56  70 SE5       30.19F
BOWLING GREEN  PTCLDY    63  56  78 CALM      30.22F
GLASGOW        PTCLDY    64  53  67 CALM      30.23F
$$

KYZ024-025-028>034-038-045-046-053-240700-
NORTH CENTRAL KENTUCKY

CITY           SKY/WX    TMP DP  RH WIND       PRES   REMARKS
LOUISVILLE/SDF MOCLDY    66  51  58 SE3       30.23F
LOUISVILLE/LOU MOCLDY    69  49  48 E3        30.24F
FORT KNOX      MOCLDY    59  53  79 E3        30.22F
$$

KYZ035>037-039>044-047>052-055>060-089>105-240700-
NORTHEAST KENTUCKY

CITY           SKY/WX    TMP DP  RH WIND       PRES   REMARKS
LEXINGTON      CLEAR     64  49  57 SE7       30.28S
COVINGTON      CLEAR     62  46  55 SE7       30.27F
FRANKFORT      PTCLDY    60  49  66 E3        30.26F
$$

KYZ054-064>069-076>088-106>120-240700-
SOUTHEAST KENTUCKY

CITY           SKY/WX    TMP DP  RH WIND       PRES   REMARKS
JACKSON        MOCLDY    63  48  58 CALM      30.31S
LONDON         CLEAR     58  51  78 CALM      30.29F
SOMERSET       CLEAR     55  52  88 SE3       30.30S
MIDDLESBORO    CLEAR     55  53  91 CALM      30.33R
MONTICELLO     CLEAR     59  54  83 CALM      30.31F
$$




USA.gov is the U.S. government's official web portal to all federal, state and local government web resources and services.